Location: Barbarka
(50.2620°N, 19.8932°E)
Time: 10:46:04
(UTC+00:00)

Daily predictions for brighter satellites

Satellite Brightness Start Highest point End
(mag) Time Altitude Azimuth Time Altitude Azimuth Time Altitude Azimuth
ATLAS CENTAUR R/B 4.4 18:43:38 10° WNW 18:49:32 58° NNE 19:05:09 10° E
Cosmos 1980 Rocket 3.3 18:51:57 10° NW 18:57:13 42° WSW 19:02:29 10° S
Cosmos 158 Rocket 4.1 18:53:24 10° S 18:58:27 57° ESE 19:03:41 10° NNE
Meteor 2-15 4.5 18:52:29 10° N 18:58:34 75° ENE 19:04:36 10° SSE
ERS-2 2.3 18:55:48 10° NNE 18:59:24 51° ESE 19:02:56 10° S
Nadezhda 4 Rocket 4.0 18:53:34 10° S 18:59:44 76° E 19:06:00 10° NNE
GP-B 4.1 18:57:57 10° NNE 19:01:52 29° E 19:05:46 10° SE
Cosmos 1812 4.4 18:59:07 10° NNE 19:02:03 20° ENE 19:04:58 10° ESE
SPOT 1/Viking Rocket 3.9 18:58:59 10° SE 19:04:02 52° ENE 19:09:07 10° N
ERS-1 Rocket 4.2 19:01:11 10° ESE 19:05:23 27° ENE 19:09:36 10° N
GEOS 3 Rocket 3.7 19:01:35 10° NE 19:06:51 84° NW 19:11:59 10° SW
Cosmos 371 Rocket 4.3 19:04:08 10° NW 19:08:45 46° WSW 19:13:20 10° S
USA 245 4.1 19:05:42 10° SE 19:10:04 42° ENE 19:13:38 10° N
Cosmos 2322 Rocket 2.4 19:04:39 10° NNW 19:10:17 65° ENE 19:15:52 10° SE
Cosmos 2056 Rocket 4.2 19:05:42 10° NNW 19:10:49 42° ENE 19:15:49 10° SE
SL-27 R/B 4.4 19:11:30 10° SE 19:13:25 14° E 19:15:21 10° ENE
Meteor 1-26 Rocket 4.4 19:09:04 10° N 19:15:02 71° ENE 19:20:46 10° SSE
Meteor 2-15 Rocket 4.5 19:12:04 10° N 19:18:12 82° E 19:24:16 10° SSE
USA 276 3.6 19:15:39 10° W 19:18:19 25° SSW 19:20:56 10° SSE
USA 234 4.2 19:13:46 10° ENE 19:20:02 50° N 19:26:19 10° WNW
CARTOSAT-1 4.0 19:22:24 10° SE 19:26:29 48° ENE 19:30:40 10° N
Cosmos 2219 Rocket 3.5 19:22:43 10° NNW 19:27:34 29° NE 19:32:23 10° ESE
Spot 2 Rocket 3.8 19:22:55 10° SE 19:27:54 55° ENE 19:32:54 10° N
Cosmos 1633 4.3 19:26:42 10° SW 19:30:04 35° WNW 19:33:27 10° N
BREEZE-M DEB (TANK) 3.7 19:28:19 10° SW 19:32:09 58° SSE 19:45:59 10° ENE
Cosmos 1371 Rocket 4.2 19:27:23 10° NNW 19:32:46 67° ENE 19:37:34 13° SE
Cosmos 1680 Rocket 3.6 19:30:35 10° S 19:35:43 55° ESE 19:40:51 10° NNE
Cosmos 2112 Rocket 4.3 19:31:09 10° S 19:36:13 48° ESE 19:41:17 10° NNE
Cosmos 1553 Rocket 4.2 19:30:17 10° N 19:36:15 55° ENE 19:41:44 12° SSE
Resurs 01 Rocket 2.4 19:32:56 10° S 19:37:15 51° W 19:41:37 10° NNW
Cosmos 1515 Rocket 4.5 19:36:19 10° N 19:40:24 34° ENE 19:43:29 15° SE
SL-16 R/B 2.6 19:35:17 10° NW 19:40:55 64° WSW 19:46:27 10° SSE
Cosmos 1151 Rocket 3.0 19:36:34 10° N 19:40:57 74° E 19:44:57 12° SSE
Terra 2.6 19:40:07 14° SE 19:43:46 38° ENE 19:48:10 10° N
ATLAS 5 CENTAUR R/B 3.3 19:40:41 10° NW 19:45:27 36° NNE 19:51:03 10° E
SPOT 3 Rocket 4.1 19:42:51 10° S 19:47:59 57° WSW 19:53:08 10° NNW
Meteor 2-3 Rocket 3.9 19:42:19 10° SSW 19:47:59 80° WNW 19:53:48 10° N
CZ-2C R/B 3.6 19:44:18 10° NNE 19:48:51 72° ESE 19:53:16 10° S
NOSS 2-1 (E) 3.5 19:46:13 10° S 19:49:11 32° ESE 19:52:15 10° ENE
Cosmos 2237 4.3 19:45:15 10° NNW 19:51:00 85° WSW 19:55:45 15° SSE
Cosmos 1271 Rocket 3.8 19:49:30 10° NNW 19:53:19 44° W 19:57:07 10° SSW
Cosmos 1328 Rocket 3.5 19:50:04 10° N 19:54:32 78° ENE 19:58:06 16° SSE
NOSS 3-1 (C) 4.2 19:47:33 10° NW 19:54:45 73° NE 20:02:01 15° SE
COSMOS 2428 3.7 19:49:44 10° NNW 19:54:59 36° NE 19:59:31 13° ESE
Cosmos 1766 Rocket 3.5 19:51:13 10° S 19:55:36 72° E 19:59:57 10° NNE
Gbstr 26 Del rocket 4.2 19:52:55 10° W 19:55:58 23° SW 19:58:12 15° S
SPOT 5 2.6 19:57:34 18° SSE 20:00:47 71° ENE 20:05:13 10° N
CZ-3B R/B 3.7 19:45:47 10° WNW 20:02:19 69° N 20:06:26 10° E
ARIANE 5 R/B 2.6 19:58:58 16° SSE 20:02:31 88° ENE 20:06:59 10° NNW
JB-3 4.4 19:58:31 10° NNE 20:02:41 89° WNW 20:06:44 10° SSW
Cosmos 292 Rocket 3.8 20:00:43 10° NNW 20:05:30 69° ENE 20:08:41 21° SE
Meteor 2-6 Rocket 4.1 20:00:09 10° N 20:05:36 82° ENE 20:09:47 17° SSE
Cosmos 1862 3.4 20:04:12 18° S 20:07:01 56° E 20:10:56 10° NNE
Cosmos 1782 3.8 20:04:05 10° NNW 20:07:56 44° W 20:11:44 10° SSW
S3M 4.2 20:02:00 10° N 20:08:23 65° ENE 20:13:09 19° SSE
USA 229 DEB 4.2 20:03:30 10° NW 20:10:38 62° NE 20:17:02 15° ESE
USA 229 4.2 20:03:36 10° NW 20:10:44 61° NE 20:17:08 15° ESE
Cosmos 1624 Rocket 4.2 20:07:01 10° NNW 20:12:13 70° WSW 20:16:05 18° S
Cosmos 1655 Rocket 4.3 20:09:18 17° SSE 20:14:05 51° E 20:20:16 10° NNE
Meteor 2-21 4.4 20:10:32 10° S 20:16:42 80° E 20:22:51 10° NNE
Cosmos 2360 Rocket 2.4 20:14:24 10° NNW 20:20:01 68° WSW 20:23:55 20° SSE
Cosmos 1420 Rocket 4.0 20:15:22 10° NNW 20:20:44 86° WSW 20:24:12 22° SSE
CZ-4C R/B 4.5 20:16:18 10° NW 20:21:39 28° NNE 20:27:54 10° ENE
Cosmos 1174 3.2 20:22:33 10° NW 20:25:31 62° SW 20:26:29 37° S
USA 267 4.2 20:21:28 10° ENE 20:26:25 22° SE 20:27:31 22° SE
COSMOS 2487 3.5 20:26:57 25° ESE 20:26:57 25° ESE 20:29:47 10° NE
NOSS 3-1 (A) 4.1 20:23:57 10° NW 20:31:12 74° NE 20:37:35 19° SE
NOSS 2-1 (C) 2.9 20:30:06 10° SW 20:33:21 80° NW 20:36:49 10° NE
Cosmos 1500 Rocket 3.7 20:34:48 29° SSE 20:36:51 55° E 20:41:13 10° NNE
Cosmos 1812 3.8 20:34:22 10° NNW 20:37:59 39° W 20:40:31 17° SSW
Cosmos 2084 3.7 20:35:02 10° SW 20:39:05 66° NW 20:43:18 10° NE
COSMOS 2455 3.1 20:34:50 17° S 20:39:14 48° ESE 20:45:00 10° NE
Meteor 1-27 Rocket 3.7 20:34:21 10° N 20:40:02 76° ENE 20:43:22 26° SSE
Cosmos 1833 4.2 20:34:18 10° SSW 20:40:04 79° ESE 20:45:53 10° NNE
NOSS 2-1 (D) 3.1 20:37:53 10° SW 20:41:07 68° NW 20:44:36 10° NE
Cosmos 2333 Rocket 2.2 20:35:32 10° NNW 20:41:14 89° WSW 20:44:24 28° SSE
Cosmos 1452 Rocket 3.5 20:37:56 10° NNW 20:43:13 79° ENE 20:45:57 29° SSE
ERS-1 Rocket 3.6 20:40:25 18° S 20:43:57 50° W 20:48:51 10° NNW
Lacrosse 5 4.0 20:46:40 11° E 20:46:40 11° E 20:47:10 10° E
Meteor 2-16 Rocket 4.4 20:42:27 18° S 20:47:06 86° ESE 20:53:14 10° N
SL-27 R/B 3.2 20:44:41 11° SW 20:48:02 53° WNW 20:51:35 10° NNE
Cosmos 2322 3.7 20:42:39 10° NNW 20:48:25 84° WSW 20:51:30 29° SSE
H-2A R/B 3.5 20:44:52 10° NNE 20:49:03 60° ESE 20:50:38 35° SSE
COBE Rocket 4.5 20:47:22 27° ESE 20:49:22 42° ENE 20:53:50 10° N
Cosmos 2297 Rocket 4.0 20:50:20 14° E 20:50:45 14° E 20:53:32 10° ENE
Cosmos 2322 Rocket 3.9 20:49:25 10° NW 20:53:51 24° WSW 20:57:55 11° SSW
Cosmos 2237 Rocket 3.2 20:48:45 10° NNW 20:54:02 37° NE 20:57:41 18° ESE
Cosmos 1408 Rocket 4.0 20:50:55 17° SSW 20:54:08 58° WNW 20:58:26 10° N
Cosmos 1743 Rocket 3.5 20:55:46 30° S 20:57:54 86° E 21:02:22 10° N
Sich 1 3.6 20:57:14 35° SE 20:58:15 41° E 21:02:20 10° NNE
USA 234 3.6 20:56:08 10° E 21:02:35 65° NNE 21:09:05 10° WNW
Cosmos 2227 Rocket 4.1 21:02:43 13° E 21:03:02 13° E 21:05:30 10° ENE
Cosmos 1110 Rocket 4.2 21:00:15 10° NNW 21:05:35 67° ENE 21:07:57 33° SE
Cosmos 1633 Rocket 4.3 21:07:00 25° ESE 21:07:35 26° E 21:11:12 10° NNE
Gblst 52 Del rocket 4.5 21:01:47 10° WNW 21:07:51 69° SSW 21:11:51 26° SE
Cosmos 1331 Rocket 4.2 21:02:54 10° NNW 21:08:08 64° ENE 21:10:22 33° SE
IRIDIUM 104 4.3 21:04:24 10° N 21:09:40 89° E 21:12:02 34° S
Cosmos 2219 Rocket 2.3 21:06:25 10° NNW 21:11:58 65° WSW 21:14:26 33° S
Cosmos 1666 Rocket 4.3 21:13:38 33° ESE 21:14:24 36° E 21:18:29 10° NNE
IRIDIUM 114 4.4 21:13:33 10° N 21:18:48 77° W 21:21:10 33° S
Terra 3.2 21:18:59 19° SW 21:21:35 31° W 21:25:50 10° NNW
SL-16 R/B 3.9 21:18:30 10° NNW 21:23:17 27° NE 21:27:47 11° E
Cosmos 2285 Rocket 4.1 21:17:04 10° NNW 21:23:18 66° WSW 21:26:17 32° S
Cosmos 2266 Rocket 4.4 21:19:57 18° SSW 21:24:33 62° WNW 21:30:47 10° N
Cosmos 489 Rocket 4.5 21:22:01 30° S 21:25:18 69° ESE 21:31:39 10° NNE
Spot 4 3.9 21:23:58 41° SE 21:25:37 71° ENE 21:30:27 10° N
Meteor 1-18 Rocket 4.5 21:20:05 10° N 21:25:54 60° ENE 21:28:16 35° SE
Meteor 1-25 Rocket 4.2 21:23:50 36° S 21:26:06 69° E 21:31:38 10° NNE
Cosmos 2315 Rocket 4.2 21:21:18 10° NNW 21:27:35 66° W 21:30:56 29° SSW
Cosmos 1515 3.5 21:25:45 10° N 21:29:33 89° W 21:30:04 65° S
ATLAS 5 CENTAUR R/B 2.3 21:25:03 10° NW 21:30:29 70° SW 21:33:05 36° SSE
Cosmos 468 4.4 21:29:46 33° SSW 21:32:13 86° ESE 21:37:29 10° NNE
Cosmos 2228 Rocket 3.8 21:29:32 10° NNW 21:33:46 46° W 21:35:17 32° SW
Cosmos 494 Rocket 3.8 21:32:48 39° S 21:34:41 75° ESE 21:39:49 10° NNE
Cosmos 1862 Rocket 3.9 21:31:47 10° N 21:36:03 52° ENE 21:36:57 44° ESE
Okean 1 3.2 21:34:49 10° N 21:38:51 84° ENE 21:39:27 63° SSE
COSMOS 2428 3.1 21:33:59 10° NW 21:39:29 50° WSW 21:41:31 34° SSW
Cosmos 1602 3.6 21:39:19 67° S 21:39:47 86° ESE 21:43:40 10° N
Meteor 2-4 Rocket 4.2 21:34:42 10° N 21:40:33 56° ENE 21:42:55 34° SE
Meteor 1-19 Rocket 4.1 21:38:38 10° NNW 21:44:17 87° W 21:46:15 42° S
Cosmos 1707 Rocket 3.5 21:40:37 10° NNW 21:44:59 75° W 21:45:57 53° SSW
Cosmos 1048 Rocket 4.2 21:48:39 27° SW 21:51:25 67° WNW 21:56:32 10° NNE
Cosmos 1666 3.6 21:51:36 35° E 21:51:36 35° E 21:55:02 10° NNE
TSX-5 4.2 21:53:35 51° ESE 21:53:35 51° ESE 21:58:15 10° NE
Cosmos 1745 Rocket 4.3 21:54:37 36° SE 21:56:49 53° E 22:02:56 10° NNE
ALOS 2 2.5 21:59:22 59° SSE 22:00:12 87° ENE 22:04:38 10° NNW
Cosmos 2219 3.8 22:00:29 36° SE 22:01:30 39° ESE 22:06:48 10° NE
USA 229 DEB 4.4 21:54:39 10° NW 22:01:33 45° WSW 22:04:27 32° SSW
USA 229 4.4 21:54:45 10° NW 22:01:39 45° WSW 22:04:34 32° SSW
COSMOS 2487 4.4 22:00:10 19° W 22:01:40 25° WNW 22:04:34 10° N
MINOTAUR IV R/B 4.5 21:57:11 10° NNW 22:01:45 83° WSW 22:02:33 60° SSE
Cosmos 2360 Rocket 4.5 22:01:04 10° WNW 22:02:56 12° W 22:04:47 10° WSW
Cosmos 1302 Rocket 3.9 21:58:37 10° NNW 22:03:52 89° WSW 22:05:22 49° SSE
Cosmos 1269 Rocket 4.2 22:07:17 47° SSE 22:08:21 55° ESE 22:13:31 10° NNE
Cosmos 2084 Rocket 3.7 22:05:11 10° NW 22:09:16 51° SW 22:09:17 51° SW
USA 267 3.2 22:03:43 10° ENE 22:10:15 68° SE 22:14:47 21° SW
Nadezhda 1 Rocket 4.0 22:04:17 10° N 22:10:45 82° E 22:13:14 40° SSE
Meteor 1-14 Rocket 4.2 22:09:13 46° S 22:10:56 73° E 22:16:36 10° NNE
CZ-4C R/B 3.6 22:05:05 10° NW 22:11:42 52° NE 22:19:34 10° ESE
Cosmos 1980 3.8 22:10:21 10° NW 22:15:57 64° WSW 22:17:31 45° S
NOSS 0 Rocket 4.4 22:11:05 10° NW 22:17:02 48° WSW 22:18:53 37° SSW
Okean 1-7 3.4 22:14:40 10° N 22:18:51 50° ENE 22:19:30 45° ESE
Cosmos 1536 4.2 22:23:28 27° E 22:23:34 27° E 22:27:00 10° NNE
Cosmos 2333 Rocket 4.1 22:21:17 10° WNW 22:24:41 16° W 22:26:23 15° WSW
COSMOS 2455 3.9 22:19:34 10° WSW 22:25:17 43° NW 22:31:03 10° NNE
Lacrosse 5 1.8 22:25:50 55° S 22:26:35 63° SE 22:31:36 10° ENE
Timation 2 Rocket 4.3 22:27:16 38° SE 22:28:35 44° ESE 22:34:23 10° NE
NOSS 2-2 (D) 4.4 22:25:59 10° NW 22:31:10 64° SW 22:33:24 41° SSE
BREEZE-M R/B 2.5 22:31:56 50° SW 22:32:47 71° SSE 22:38:43 10° E
Cosmos 2297 Rocket 2.1 22:32:07 47° SSW 22:33:50 78° ESE 22:39:31 10° NNE
Cosmos 1500 4.1 22:34:31 38° W 22:35:01 40° WNW 22:38:42 10° N
Resurs 1-4 Rocket 4.5 22:36:48 10° ENE 22:37:56 11° E 22:39:04 10° E
Thor Agena Rocket 3.8 22:33:04 10° NNE 22:38:01 52° E 22:39:01 45° SE
Cosmos 2237 Rocket 2.6 22:32:49 10° NW 22:38:15 47° WSW 22:39:29 41° SW
Cosmos 1869 Rocket 4.4 22:38:08 36° ESE 22:38:41 38° E 22:42:50 10° NNE
Cosmos 1470 Rocket 3.7 22:43:08 53° WSW 22:43:49 61° WNW 22:48:07 10° N
Cosmos 1633 Rocket 4.1 22:44:03 31° WSW 22:45:14 36° WNW 22:49:17 10° N
USA 234 3.2 22:42:59 36° SSE 22:45:40 62° SW 22:52:11 10° WNW
Cosmos 2227 Rocket 2.1 22:44:30 48° S 22:46:04 74° ESE 22:51:45 10° NNE
Cosmos 1933 Rocket 3.5 22:49:28 63° SSW 22:50:08 80° W 22:54:38 10° N
SAR-Lupe-2 3.5 22:49:04 10° NNE 22:52:30 78° NE 22:52:30 78° NE
Cosmos 2242 Rocket 3.5 22:48:48 10° NNW 22:53:13 75° W 22:53:45 65° SSW
Cosmos 1340 Rocket 2.7 22:54:24 70° WSW 22:54:35 72° WNW 22:58:32 10° N
Cosmos 2219 Rocket 4.4 22:53:23 10° W 22:54:49 11° W 22:56:08 10° WSW
Cosmos 1544 3.4 22:55:37 55° ENE 22:55:37 55° ENE 22:58:56 10° NNE
Cosmos 1378 3.2 22:52:22 10° NNW 22:55:52 64° WNW 22:55:52 64° WNW
Cosmos 2263 Rocket 3.8 22:57:34 19° ESE 22:58:56 21° E 23:03:03 10° NE
SL-16 R/B 4.1 22:55:35 10° ESE 23:00:51 31° ENE 23:06:08 10° N
Cosmos 44 3.7 22:59:53 10° NW 23:05:12 65° NE 23:07:58 27° ESE
Cosmos 2181 Rocket 4.0 22:59:12 10° N 23:05:34 81° E 23:08:02 40° SSE
Cosmos 1461 3.9 23:07:53 35° ESE 23:07:53 35° ESE 23:11:49 10° NE
SL-16 R/B 2.1 23:02:18 10° NNW 23:07:58 73° WSW 23:09:37 47° S
Cosmos 2251 Rocket 3.9 23:08:14 44° SSE 23:09:24 53° ESE 23:14:35 10° NNE
ATLAS 5 CENTAUR R/B 4.1 23:11:03 10° WNW 23:14:34 16° WSW 23:14:34 16° WSW
Okean 3 3.3 23:11:19 10° NNW 23:15:36 74° W 23:16:01 67° SW
Intercosmos 25 Rocket 3.8 23:24:02 52° SW 23:24:59 69° WNW 23:31:09 10° N
Cosmos 1743 2.6 23:25:44 75° SE 23:25:53 76° E 23:29:42 10° NNE
Cosmos 1666 4.5 23:26:25 21° W 23:27:08 22° WNW 23:30:14 10° NNW
Meteor 1-11 Rocket 3.7 23:25:58 43° SW 23:27:46 71° WNW 23:33:19 10° N
Helios 1A 3.5 23:27:02 37° ESE 23:28:19 53° ENE 23:32:25 10° N
Cosmos 1975 4.3 23:27:56 25° ESE 23:28:50 27° E 23:32:19 10° NNE
Cosmos 2221 Rocket 3.8 23:26:23 10° N 23:30:57 68° ENE 23:32:12 45° SE
ARGOS Delta rocket 3.9 23:27:06 10° NNE 23:31:41 62° E 23:32:38 49° SSE
PSLV R/B 4.1 23:28:08 10° N 23:32:51 59° WNW 23:34:07 43° SW
Cosmos 1709 Rocket 4.3 23:30:39 34° SW 23:33:18 57° WNW 23:39:37 10° N
ASTEX 1 3.3 23:35:16 46° SSE 23:36:44 84° E 23:41:41 10° N
Cosmos 1943 3.7 23:34:28 10° NNW 23:40:09 60° NE 23:44:45 16° SE
Cosmos 909 Rocket 4.5 23:36:15 28° SW 23:40:10 74° NW 23:48:21 10° NE
Cosmos 1733 Rocket 3.4 23:41:40 44° SE 23:42:44 57° E 23:47:07 10° NNE
CZ-2D R/B 3.2 23:38:08 10° NNE 23:43:06 35° E 23:45:32 24° SE
SL-8 R/B 3.8 23:43:02 51° S 23:43:15 52° SSE 23:47:54 10° E
SL-24 R/B - RUBIN 2 4.0 23:38:53 10° NW 23:44:05 70° NE 23:47:25 19° SE
Cosmos 407 Rocket 4.1 23:43:30 35° SSE 23:45:08 47° ESE 23:50:08 10° NNE
Cosmos 2219 4.1 23:42:22 23° WSW 23:45:37 44° NW 23:51:09 10° NNE
USA 267 3.7 23:46:50 10° ENE 23:53:16 62° NNW 23:59:42 10° W
YAOGAN 11 4.1 23:53:53 50° S 23:54:59 74° WSW 23:59:29 10° NNW
